Weather Roundup
Issued by NWS

Home | Current Version | Previous Version | Text Only | Print | Product List | Glossary On
Versions: 1 2 3 4 5 6 7 8 9 10 11 12 13 14 15 16 17 18 19 20 21 22 23 24 25 26 27 28 29 30 31 32 33 34 35 36 37 38 39 40 41 42 43 44 45 46 47 48 49 50
163
NZUS93 KARX 220710
HRRWXR

CURRENT HOURLY OBSERVATIONS ACROSS
MUCH OF THE UPPER MISSISSIPPI VALLEY
NATIONAL WEATHER SERVICE LA CROSSE WI
200 AM CDT TUE AUG 22 2017


...SOUTHEAST MINNESOTA...


CITY           SKY/WX    TMP DP  RH WIND       PRES   REMARKS
ROCHESTER      PTCLDY    63  62  97 W9        29.91F
ROCHESTER/MAYO FAIR      64  63  96 W8        29.90F
WINONA         MOCLDY    68  63  83 W8        29.87F
AUSTIN         MOCLDY    63  61  94 W5        29.92F
ALBERT LEA     MOCLDY    64  64 100 W5        29.94S
DODGE CENTER   MOCLDY    63  61  94 W8        29.92S
PRESTON        CLOUDY    64  61  91 W8        29.91F
OWATONNA       PTCLDY    63  63 100 W8        29.93R
FARIBAULT      CLEAR     64  63  94 W9        29.92R
$$

...ELSEWHERE IN MINNESOTA...


CITY           SKY/WX    TMP DP  RH WIND       PRES   REMARKS
MINNEAPOLIS    PTCLDY    66  61  84 NW12      29.89R
INTNL FALLS    CLEAR     50  49  96 CALM      29.88F FOG
DULUTH         CLOUDY    55  55 100 NW6       29.85R
RED WING       CLOUDY    66  63  88 W8        29.86R
REDWOOD FALLS  CLEAR     63  57  81 NW13      29.96R
MANKATO        CLEAR     64  61  90 NW8       29.94R
WORTHINGTON    CLEAR     64  59  83 NW14      30.01R
FAIRMONT       CLEAR     63  61  93 NW8       29.97R
$$

...SOUTHWEST WISCONSIN...


CITY           SKY/WX    TMP DP  RH WIND       PRES   REMARKS
LA CROSSE      MOCLDY    69  64  84 W8        29.86F
PRAIRIE DU CHI CLOUDY    65  62  89 SW3       29.91S
BOSCOBEL       CLOUDY    68  63  84 VRB5      29.89F
LONE ROCK      CLOUDY    67  65  93 W6        29.87S
PLATTEVILLE    CLOUDY    67  67 100 W12G17    29.91S
FORT MC COY    CLOUDY    61  61 100 CALM      29.86F
CAMP DOUGLAS   CLOUDY    64  64 100 W7        29.85F
MAUSTON-NEW LI CLOUDY    66  64  93 W7        29.85F
VIROQUA        FAIR      63  63 100 CALM      29.90F
WIS DELLS      CLOUDY    65  62  88 W5        29.86F
$$

...ELSEWHERE IN WISCONSIN...


CITY           SKY/WX    TMP DP  RH WIND       PRES   REMARKS
MILWAUKEE      MOCLDY    75  70  84 SW10      29.82R
MADISON        CLOUDY    70  66  87 NW6       29.84S
GREEN BAY      CLOUDY    70  67  90 SW7       29.78F
EAU CLAIRE     CLOUDY    66  63  90 SW8       29.82F
BLACK RVR FLS  FAIR      64  64 100 SW3       29.84F
MEDFORD        CLOUDY    64  62  94 W7        29.81F
WAUSAU         CLOUDY    66  62  87 SW9       29.80F
WIS RAPIDS     CLOUDY    65  63  93 W7        29.84F
MARSHFIELD     CLOUDY    66  61  84 SW9       29.82F
RICE LAKE      CLOUDY    66  63  89 W9        29.84R
$$

...NORTHEAST IOWA...


CITY           SKY/WX    TMP DP  RH WIND       PRES   REMARKS
WATERLOO       CLOUDY    64  63  96 W5        29.93S
DUBUQUE        CLOUDY    67  65  93 NW13      29.93R
DECORAH        CLOUDY    63  63 100 SW3       29.90F
MASON CITY     NOT AVBL
CHARLES CITY   CLOUDY    64  64 100 SW6       29.94F
OELWEIN        CLOUDY    64  64 100 W7        29.95S
$$

...ELSEWHERE IN IOWA...


CITY           SKY/WX    TMP DP  RH WIND       PRES   REMARKS
DES MOINES     CLOUDY    67  65  93 N9        29.97R
IOWA CITY      CLOUDY    69  65  86 W10       29.96R
FORT DODGE     CLOUDY    63  59  88 SW3       29.98R
MARSHALLTOWN   CLOUDY    65  65 100 W7        29.96R
CEDAR RAPIDS   LGT RAIN  66  65  96 SW9       29.92F
$$

...NORTHERN ILLINOIS...


CITY           SKY/WX    TMP DP  RH WIND       PRES   REMARKS
CHICAGO-OHARE  CLOUDY    74  69  85 SW8       29.83S
CHICAGO-MIDWAY CLOUDY    74  70  87 S15G22    29.83F
MOLINE         LGT RAIN  70  66  87 SW9       29.89R
ROCKFORD       CLOUDY    73  69  87 W9        29.85S
PEORIA         RAIN      73  73 100 W12       29.94R
$$

NOTE: "FAIR" INDICATES FEW OR NO CLOUDS BELOW 12,000 FEET WITH NO
SIGNIFICANT WEATHER AND/OR OBSTRUCTIONS TO VISIBILITY. WIND
SPEEDS ARE IN MILES-PER-HOUR.




USA.gov is the U.S. government's official web portal to all federal, state and local government web resources and services.